Wind_Speed
67 66 67 66 65 65 65 63 62 60 60 64 67 68 66 66 69 70 65 63 64 63 60 58 58 58 59 60 61 61 61 61 62 63 64 65 66 68 69 70 71 72 74 75 76 77 79 80 82 83 84 85 86 88 89 90 91 92 93 94 95 96 97 97 98 99 100 100 100 100 100 99 99 99 98 97 97 97 97 97 97 97 97 98 98 97 97
66 65 65 64 64 65 64 63 61 61 62 64 66 65 64 65 67 66 63 62 63 62 60 58 57 59 61 61 60 60 60 61 62 63 63 65 66 68 70 71 73 74 75 76 77 79 80 82 83 84 85 86 87 89 90 91 92 93 94 94 95 96 96 96 96 96 96 95 94 93 92 91 90 89 88 88 87 87 87 87 87 87 88 89 89 90 91
67 66 65 64 64 65 64 63 62 62 63 63 62 62 63 64 65 63 61 63 63 59 57 58 59 60 60 60 60 61 61 62 63 63 65 66 68 70 71 73 74 75 76 77 78 80 81 83 84 85 86 87 88 89 90 91 92 93 93 93 93 92 92 91 90 89 87 85 83 82 80 79 79 78 78 78 78 78 77 77 77 78 79 80 81 82 83
67 65 64 64 64 64 65 66 65 63 62 61 60 61 62 63 63 64 64 65 63 58 57 60 61 60 60 60 62 63 63 63 64 65 66 68 70 71 73 74 75 76 77 79 80 81 82 84 85 86 86 87 88 88 89 89 89 89 89 88 87 86 85 83 81 79 77 75 74 73 73 72 72 72 72 72 72 72 71 71 72 72 73 74 75 76 78
66 65 64 64 63 66 69 68 64 59 58 58 60 61 61 61 63 64 65 64 62 60 61 62 62 61 62 63 64 65 65 65 66 67 69 70 72 73 74 75 76 77 79 80 81 82 83 84 84 85 85 85 85 86 86 85 85 84 83 81 79 77 76 74 73 72 71 70 70 70 70 69 69 69 69 69 69 69 69 69 70 70 71 72 73 74 76
66 65 64 63 65 70 71 65 59 56 57 58 61 61 60 60 62 63 64 64 64 64 64 63 63 63 64 65 65 65 66 67 68 69 71 72 73 75 76 77 77 78 79 80 81 82 83 84 84 84 83 83 82 82 81 80 79 77 76 74 73 71 70 69 69 68 68 68 68 68 68 68 68 68 68 68 69 70 71 71 72 72 73 74 75 76 77
65 64 63 65 69 70 65 59 57 57 58 58 60 61 60 60 62 63 64 65 65 65 64 64 65 65 65 66 66 67 68 68 69 70 72 73 75 76 77 78 78 79 80 81 81 82 82 82 81 81 80 79 77 76 74 73 72 71 70 70 69 68 68 67 67 66 66 67 67 67 67 68 68 69 70 71 72 73 73 74 74 74 74 75 75 75 76
65 65 65 68 70 66 60 59 60 58 57 59 61 62 61 60 62 64 64 64 64 64 65 66 66 66 67 67 68 68 69 70 70 72 74 76 77 78 78 79 79 79 80 80 80 79 78 77 76 75 73 71 69 68 67 66 66 66 66 66 65 65 65 65 65 66 66 67 68 68 69 70 71 72 73 73 74 74 74 73 73 73 73 73 73 73 74
64 65 66 67 68 66 61 58 57 55 57 60 62 64 62 59 61 64 64 64 64 65 66 67 67 67 68 68 68 70 71 72 74 75 77 78 78 79 79 79 79 78 78 77 76 74 72 70 68 66 65 64 63 63 63 63 63 63 63 63 63 63 64 65 66 67 68 69 70 71 71 72 72 72 72 72 73 72 72 71 71 72 72 72 73 74 74
62 64 66 66 68 67 60 55 54 55 58 61 62 65 64 59 60 64 64 64 65 66 67 67 67 68 69 68 69 72 74 75 76 77 78 79 79 79 78 78 76 75 74 71 69 67 64 62 61 60 60 60 60 60 60 60 61 61 61 61 62 63 64 66 68 69 70 71 71 71 71 71 71 70 70 70 70 71 71 71 71 72 72 72 72 72 72
61 62 65 66 67 65 59 56 57 58 60 61 63 66 65 59 59 63 64 64 65 66 67 67 68 69 70 69 70 74 77 77 78 78 78 78 78 77 76 74 71 69 66 63 61 59 58 57 57 57 57 57 57 57 58 59 59 60 61 61 63 64 65 67 68 70 70 70 70 70 69 69 69 69 69 69 70 71 72 72 71 71 70 69 68 68 68
60 61 64 65 65 63 59 58 58 59 60 62 64 67 65 60 59 62 64 65 65 66 68 69 69 70 71 71 73 75 77 78 78 78 77 76 75 73 70 67 64 61 58 56 55 54 54 54 54 55 55 55 55 56 57 58 59 60 61 62 63 65 66 67 68 69 69 69 68 68 68 67 68 68 69 69 70 70 71 70 69 67 66 65 64 63 62
59 61 63 65 64 61 59 59 59 60 62 64 64 64 62 60 61 63 64 66 67 67 69 70 70 71 72 73 75 76 76 77 77 76 75 73 70 67 63 59 56 54 53 52 52 52 52 53 53 53 53 54 55 56 57 58 59 60 61 62 64 65 66 67 68 67 67 66 66 66 66 67 67 68 69 69 69 69 68 67 65 64 62 61 59 56 55
60 61 62 66 65 60 57 59 61 62 64 65 63 62 62 63 65 66 66 67 68 69 70 71 71 72 73 74 75 75 76 75 75 74 72 69 64 60 56 52 50 50 50 50 51 51 52 52 52 52 53 54 55 57 58 59 59 60 61 63 64 65 66 66 65 65 64 64 64 65 66 67 67 67 68 68 68 67 65 64 62 59 56 54 52 51 51
60 61 63 66 66 60 58 62 65 65 66 65 63 63 65 66 67 67 68 68 68 70 71 72 73 73 74 75 75 75 75 74 72 69 66 62 58 53 49 48 48 48 49 50 51 51 52 52 53 53 54 55 56 58 59 59 60 61 62 63 64 64 64 64 63 63 63 63 64 66 66 67 67 66 66 66 66 65 63 61 57 53 50 48 47 47 47
61 63 65 66 65 63 64 67 67 66 66 65 64 66 67 67 68 69 69 69 70 72 73 74 74 75 74 74 74 73 72 69 66 63 59 56 52 48 46 46 47 48 49 50 51 52 53 53 54 54 55 56 57 58 59 60 60 61 62 63 63 63 62 62 62 62 63 64 65 66 66 66 65 65 64 64 63 62 60 57 51 47 45 45 44 44 43
63 65 67 67 66 66 68 69 67 66 65 65 66 67 68 69 69 70 71 72 73 74 75 75 75 74 73 73 71 69 66 63 60 57 54 50 47 45 45 47 47 48 50 51 52 53 53 54 55 55 56 57 58 59 59 60 61 62 62 62 62 62 62 61 62 63 63 64 64 64 65 64 63 63 63 62 61 59 56 51 46 43 43 43 42 42 41
65 67 68 67 66 67 68 67 66 65 64 65 66 68 69 69 70 71 73 74 74 74 73 73 73 72 71 69 67 64 61 58 55 52 49 45 44 44 46 48 49 50 51 52 53 54 55 56 56 57 58 58 58 59 60 61 61 62 62 61 61 61 61 62 62 63 63 63 63 63 63 62 62 62 61 60 58 55 51 46 43 43 42 41 41 41 41
67 69 68 67 66 67 66 65 65 65 64 64 66 67 68 69 70 71 72 72 70 70 70 70 69 68 66 64 61 59 56 53 50 48 46 44 44 45 47 49 50 51 53 54 55 55 56 57 58 58 59 59 59 60 61 61 62 62 61 61 61 61 62 62 62 62 62 61 61 61 61 61 60 60 60 58 55 50 45 43 42 43 42 41 41 42 42
68 69 67 65 66 66 65 64 63 63 62 63 65 67 68 68 69 69 69 67 66 65 65 65 64 62 60 58 55 53 51 49 48 46 45 44 44 46 47 49 50 52 53 55 56 56 57 58 59 59 60 60 60 60 61 61 61 61 61 61 61 61 61 61 61 60 60 60 60 60 59 59 59 58 57 55 51 45 43 43 43 42 41 41 42 43 43
68 67 64 62 63 64 63 61 60 60 61 63 65 65 65 66 66 66 64 62 61 60 59 59 58 56 54 52 50 49 48 47 46 45 44 45 45 46 48 49 51 52 53 55 56 57 58 59 59 60 60 60 60 61 61 61 60 60 60 60 61 60 60 59 59 59 59 59 59 59 58 57 57 56 54 51 45 41 41 43 43 42 41 41 42 43 43
69 66 61 58 59 60 58 56 57 60 62 63 64 64 64 63 62 60 58 57 56 56 55 53 52 51 48 46 46 46 46 45 45 45 45 45 46 47 48 50 51 52 54 55 56 57 58 59 59 60 60 60 60 61 60 60 60 60 60 60 59 59 58 57 57 57 56 57 57 57 56 56 55 53 50 47 43 40 40 40 41 42 43 43 44 44 43
67 62 57 54 55 57 56 56 58 60 61 62 63 62 60 59 57 56 55 55 53 52 49 47 46 45 44 43 45 45 45 45 45 45 46 46 47 48 49 50 52 53 54 55 56 58 59 59 59 59 59 60 60 60 60 60 60 60 59 58 57 56 56 55 54 54 54 54 55 55 55 55 53 49 43 41 41 41 40 39 40 42 44 45 46 46 45
60 56 52 51 53 54 55 56 58 58 57 57 57 57 55 55 54 53 52 50 48 46 44 43 42 42 42 43 44 45 45 46 46 47 48 48 48 49 50 51 53 54 54 55 57 58 58 59 58 58 58 59 59 59 60 59 59 59 58 56 55 54 53 52 52 52 52 53 53 53 53 52 51 45 39 35 36 39 40 40 41 43 44 45 45 46 46
54 51 48 48 50 51 51 51 51 51 51 52 53 54 53 51 49 48 47 45 43 42 42 41 41 42 43 43 44 45 46 46 47 48 48 48 49 50 51 52 54 54 55 56 57 57 58 58 58 58 58 59 59 58 58 58 58 57 55 54 53 52 51 50 50 51 51 52 52 51 51 50 47 42 37 34 33 34 36 39 42 44 44 44 44 44 45
48 45 44 45 46 45 45 45 46 46 47 49 50 49 47 45 44 44 43 42 42 42 42 42 42 43 43 44 44 44 44 45 46 46 47 48 49 51 52 53 54 55 56 56 57 57 58 58 58 58 59 59 58 57 57 56 55 53 52 52 51 50 50 50 50 50 50 50 49 48 48 47 43 38 35 34 33 33 34 37 40 42 43 43 44 43 44
42 42 43 44 44 42 41 43 44 45 45 45 45 43 41 41 42 42 42 42 43 43 43 43 42 42 43 42 42 42 42 43 44 46 47 49 51 53 54 55 56 57 57 57 57 58 58 58 57 57 58 58 56 55 54 53 52 51 50 50 50 49 49 49 49 48 48 48 47 46 46 45 40 36 34 33 33 34 35 37 39 41 41 41 43 44 44
42 43 43 43 42 41 42 43 44 44 42 42 41 40 40 41 42 43 43 42 41 41 41 41 41 41 41 41 41 41 42 44 46 47 48 49 51 53 55 56 57 58 58 58 58 58 57 57 56 56 57 56 55 53 51 50 49 49 49 48 48 48 47 47 47 46 47 47 46 45 44 42 38 34 33 32 33 34 36 38 39 40 40 40 41 43 44
44 43 43 44 45 45 45 45 44 43 41 39 40 41 41 43 43 43 41 40 38 38 39 39 39 40 40 41 42 43 44 46 47 48 49 50 51 53 54 56 57 58 58 58 57 56 56 55 55 55 55 54 52 50 49 48 47 47 47 47 47 46 46 46 47 47 48 48 47 45 44 40 36 33 32 32 33 35 36 38 39 39 38 38 39 41 43
45 45 46 47 47 48 48 47 45 43 41 41 42 43 44 44 43 41 39 38 38 38 39 39 40 41 42 43 44 45 46 47 48 50 50 51 51 52 53 54 55 56 57 56 55 54 54 53 53 53 53 51 49 48 47 47 47 47 47 47 47 47 47 48 48 49 50 50 49 46 43 39 35 32 32 32 33 35 36 37 38 38 37 38 38 39 41
47 48 48 47 47 48 49 48 46 44 43 43 45 45 45 44 43 42 40 39 40 40 41 42 43 43 45 46 47 47 48 49 50 50 51 51 51 51 50 50 50 52 53 53 53 52 52 52 52 52 50 49 48 47 47 48 48 48 49 50 50 50 50 50 51 52 53 53 50 46 42 38 34 32 31 32 33 34 36 37 37 37 37 37 38 39 41
49 49 48 47 47 49 49 48 47 46 46 46 47 47 45 45 44 43 42 42 42 43 44 45 46 47 47 48 48 49 49 50 51 51 52 52 52 51 50 48 48 48 50 51 51 51 51 51 51 50 49 48 48 48 48 48 49 50 51 52 52 53 53 53 54 54 55 55 52 46 40 36 33 31 31 32 32 34 35 36 36 36 37 37 38 40 41
50 51 51 50 50 51 51 50 50 49 49 49 49 49 47 45 45 44 43 44 44 45 46 48 49 49 49 49 49 49 50 51 51 52 53 53 53 52 51 49 48 48 49 50 51 51 51 51 50 50 49 49 49 49 49 49 50 51 52 53 54 55 55 55 56 57 58 57 51 43 37 34 31 30 30 31 32 33 34 34 35 36 37 38 39 40 42
55 56 55 53 52 53 54 53 53 51 50 50 51 49 47 46 46 46 45 45 46 47 48 50 50 50 50 50 50 50 51 52 52 53 54 55 54 54 53 51 49 48 48 50 51 52 52 51 50 50 50 51 51 51 52 52 52 53 53 53 55 55 55 57 58 59 57 53 46 39 35 32 29 29 29 30 31 32 33 33 34 35 36 38 39 40 42
58 58 57 56 55 55 54 54 53 51 50 50 50 49 48 47 48 47 46 46 47 48 50 51 51 51 51 50 50 51 52 52 53 54 55 56 56 56 55 53 51 49 49 50 51 52 52 52 52 52 52 53 54 54 54 54 54 54 54 55 56 55 56 58 59 57 52 46 39 34 32 29 28 28 28 29 30 31 32 32 33 34 35 37 39 40 41
57 58 58 56 55 54 53 52 51 50 49 49 49 49 49 49 49 48 47 48 49 50 51 51 52 52 51 51 51 52 53 53 54 55 56 57 58 58 57 55 53 50 49 50 52 52 52 53 53 54 54 55 55 55 56 56 55 55 55 56 55 56 57 59 57 52 46 39 33 31 29 27 26 27 27 28 29 30 31 31 32 34 35 36 38 39 40
53 54 53 52 51 51 50 49 48 48 48 49 50 50 50 49 48 48 48 50 51 51 51 51 52 52 52 52 52 53 54 55 55 56 58 59 60 59 58 56 55 53 51 52 52 53 53 53 54 55 55 55 56 56 56 56 55 55 55 55 55 56 58 56 52 47 40 33 29 28 27 26 25 25 26 27 28 29 29 30 32 33 34 36 37 38 39
50 49 49 48 48 49 49 49 49 50 51 52 51 51 50 49 49 49 51 51 52 52 51 52 53 53 53 53 54 55 56 56 57 58 59 61 61 60 59 58 57 56 55 54 54 54 55 55 56 56 56 56 56 56 56 55 54 54 53 53 55 57 56 52 47 41 33 27 26 26 25 24 24 24 25 26 27 27 28 30 31 33 34 35 36 37 37
48 47 47 47 48 50 51 51 52 52 52 52 51 51 51 51 52 53 53 53 52 51 51 52 53 53 54 55 56 56 57 58 59 60 61 62 62 61 60 60 60 60 59 57 57 57 57 56 56 56 56 56 55 55 54 53 52 51 52 54 56 55 50 45 40 33 26 24 24 24 23 22 22 23 24 25 26 26 27 29 30 32 33 35 35 36 37
46 45 45 46 46 47 48 49 50 50 51 51 52 53 54 55 55 54 53 51 51 51 51 52 53 54 55 56 57 58 59 59 60 62 63 63 63 63 62 62 62 63 62 60 58 57 56 55 54 53 53 53 53 52 51 51 50 51 53 55 53 49 44 39 32 26 23 22 23 22 21 21 21 22 23 24 24 25 27 28 30 31 33 34 35 36 36
45 45 45 45 46 47 48 49 50 51 53 54 54 55 55 55 54 52 50 49 50 51 52 53 54 55 57 57 58 59 60 61 62 63 64 64 64 65 64 64 65 65 64 60 58 56 54 53 52 51 51 51 51 51 51 51 52 53 53 50 46 42 37 31 25 22 22 22 21 20 19 19 20 21 22 23 23 24 26 28 29 31 32 33 34 35 36
47 47 47 48 48 49 50 51 52 53 54 55 55 56 56 54 52 51 49 50 51 52 53 54 56 57 58 58 59 60 62 63 64 64 65 65 66 67 67 66 66 66 63 59 57 55 54 54 53 53 53 53 53 53 53 53 53 51 48 43 39 36 30 24 22 22 21 21 20 19 18 19 20 21 21 22 22 24 26 27 29 30 32 33 34 35 36
48 48 48 49 50 50 51 52 53 54 54 55 55 54 53 51 50 49 49 50 52 53 54 56 57 58 58 59 60 62 63 65 65 66 67 68 69 70 69 67 65 63 61 58 57 57 57 57 57 57 57 57 56 55 53 51 47 44 40 37 34 29 24 22 22 21 20 19 18 17 17 18 19 20 21 21 22 24 25 27 29 30 32 33 34 35 36
49 50 50 51 52 53 53 53 52 52 51 51 50 49 49 48 48 49 50 51 53 54 56 57 57 58 59 61 62 64 65 67 68 69 70 70 71 71 69 66 63 61 61 61 61 61 62 61 60 58 57 55 52 49 46 42 39 37 34 32 28 24 22 22 21 20 19 18 17 16 17 18 19 20 20 21 22 23 25 27 29 30 32 33 34 34 35
52 53 53 53 52 52 51 50 49 49 49 49 49 49 49 49 50 51 52 53 54 55 56 57 58 60 61 63 65 66 67 69 71 72 72 71 69 68 66 64 64 64 65 65 64 63 61 59 57 54 51 48 45 41 38 36 35 33 31 27 24 23 23 22 21 19 18 17 16 16 17 18 19 20 20 21 22 24 25 27 29 31 32 33 33 34 35
52 51 51 50 50 49 49 49 49 49 50 50 51 51 51 52 52 52 53 54 55 56 57 59 61 63 64 65 66 68 70 72 73 72 70 68 66 65 66 67 67 67 67 65 63 61 58 56 53 50 47 44 40 37 35 33 32 30 27 24 24 24 23 22 20 18 17 16 16 16 17 18 19 19 20 21 22 24 26 27 29 31 32 33 33 34 35
49 49 49 49 49 49 50 50 51 51 51 51 51 51 51 51 52 52 53 55 56 58 60 62 63 64 65 66 69 71 72 72 70 68 66 65 66 67 68 68 68 67 65 64 61 59 57 55 52 49 46 42 39 35 33 31 29 27 25 25 25 25 23 21 19 17 17 16 16 17 18 19 19 19 20 21 22 24 26 28 29 31 32 33 33 34 34
48 49 50 50 50 50 50 51 51 51 50 50 50 50 51 51 52 54 56 58 59 61 62 63 64 66 67 69 70 70 68 66 65 65 66 68 68 68 67 66 65 64 63 61 59 56 53 50 47 45 43 40 37 34 31 29 27 25 25 27 27 25 22 20 18 17 17 16 16 17 18 19 19 20 20 21 23 24 26 28 30 31 32 33 34 34 34
48 49 49 50 49 49 49 49 48 48 48 48 49 51 52 54 55 57 59 60 61 63 64 65 67 68 68 67 65 64 63 64 66 67 68 68 67 65 64 64 63 61 59 56 52 47 43 40 39 38 37 36 34 32 29 27 26 26 27 28 26 24 21 19 17 17 16 16 17 18 18 19 19 20 21 22 23 24 26 28 30 32 33 34 34 34 34
48 48 48 48 47 46 46 46 46 47 49 50 52 54 55 57 58 60 61 62 64 65 66 66 65 64 62 61 61 62 64 65 65 65 64 63 62 61 60 58 55 51 47 42 38 34 32 31 31 31 31 30 30 29 28 27 27 28 29 28 25 22 19 18 17 16 16 17 17 18 18 19 19 20 21 22 23 25 26 28 30 32 33 34 34 35 35
48 47 47 46 47 47 48 49 50 52 53 54 55 56 57 58 60 61 62 63 63 63 62 61 60 59 60 61 62 63 62 61 60 59 58 57 56 54 51 46 41 36 32 28 24 22 22 23 24 25 26 27 28 27 27 27 29 30 29 26 23 20 18 17 16 16 16 17 17 17 18 19 20 21 21 22 24 25 27 29 31 32 33 34 35 35 35
47 47 47 48 49 50 51 52 53 53 54 55 56 57 58 58 59 59 60 60 59 58 58 58 59 61 61 61 60 57 55 53 51 50 49 48 46 43 37 32 28 24 20 17 14 14 16 18 20 21 24 25 26 26 27 28 30 29 27 24 21 19 17 16 15 16 16 16 17 17 18 19 20 21 22 23 25 26 28 29 31 33 34 34 35 35 35
Wind_Direction
270 270 270 270 271 271 271 272 273 274 274 273 272 272 275 276 275 277 280 278 276 278 279 277 278 278 278 278 278 279 280 280 280 280 280 281 281 281 282 282 282 282 283 283 283 283 284 284 284 284 283 283 283 283 283 283 283 283 283 283 283 283 284 284 284 284 284 284 284 284 284 284 284 284 284 284 284 284 283 282 282 281 280 280 279 278 278
270 269 270 271 271 271 272 273 274 276 274 271 271 275 277 277 276 278 279 277 276 278 280 280 279 278 278 279 280 281 281 281 281 281 282 282 282 282 283 283 283 284 284 284 285 285 285 285 285 284 284 284 284 284 284 284 284 284 284 284 284 285 285 285 285 285 286 286 286 286 286 286 286 286 286 286 286 285 285 285 284 283 283 282 281 281 280
271 272 272 272 272 272 272 273 275 276 274 272 274 277 277 275 276 277 277 275 276 279 280 278 277 277 278 280 281 281 281 281 281 282 282 283 283 283 284 284 284 285 285 285 285 285 285 285 285 285 285 285 285 285 285 285 285 285 285 285 285 285 285 285 286 286 286 286 287 287 287 286 286 286 286 286 286 286 286 285 285 285 284 283 283 282 282
272 274 273 272 273 272 271 274 278 277 275 276 276 275 273 274 275 276 275 276 279 280 278 277 277 279 280 280 280 280 281 282 282 282 283 283 284 284 285 285 286 286 286 287 286 286 286 286 286 286 286 286 286 285 285 285 285 285 285 285 285 285 285 286 286 286 286 286 286 286 286 286 286 286 286 286 285 285 285 285 284 284 284 283 283 282 282
272 272 272 272 271 269 271 278 282 278 275 275 274 272 273 274 275 276 277 279 281 280 279 279 280 281 281 281 281 281 282 282 283 284 284 285 285 286 287 287 288 288 288 288 287 287 287 286 286 286 286 286 286 286 286 286 286 286 285 285 285 285 285 285 285 286 286 286 286 286 287 287 287 287 287 287 287 287 286 285 285 284 284 284 283 283 282
271 271 271 270 267 268 276 282 280 275 273 273 272 273 274 274 275 276 278 279 280 280 280 281 282 281 281 281 281 282 282 283 284 285 286 287 287 288 288 288 288 288 288 287 287 286 286 286 286 286 286 286 286 286 286 286 285 285 285 285 286 286 286 287 287 288 288 288 289 289 289 289 290 290 289 289 289 288 287 287 286 286 285 285 284 284 283
270 270 269 267 267 272 279 279 274 272 273 273 274 274 273 273 275 276 278 279 280 280 281 281 282 282 282 282 282 283 284 285 286 287 288 288 289 289 289 289 288 288 287 287 287 287 287 287 287 287 287 287 287 286 286 286 286 286 286 287 288 289 290 290 291 291 291 291 291 291 291 291 291 291 290 290 289 289 289 288 288 287 286 286 285 285 284
269 269 268 268 271 274 275 274 274 275 275 275 274 273 272 273 275 276 277 279 280 280 281 281 281 281 282 283 284 285 286 287 288 289 289 290 290 290 290 289 289 289 288 288 288 288 289 288 288 288 288 287 287 287 286 286 287 287 288 289 290 291 292 292 292 292 292 292 292 292 291 291 291 291 291 290 290 290 289 289 289 289 288 288 287 287 286
269 270 270 271 272 273 273 276 278 278 276 274 274 274 274 274 276 277 279 280 280 280 281 281 282 282 283 284 286 287 288 289 289 290 291 291 291 291 291 290 290 290 290 290 290 289 289 289 288 287 287 287 286 286 287 287 288 289 289 290 291 291 291 292 291 291 291 291 292 292 292 292 292 291 291 291 291 290 290 290 290 290 290 290 290 289 289
269 270 271 272 273 274 277 279 277 276 276 276 277 277 276 276 277 279 279 279 280 280 281 281 282 283 284 285 287 289 289 290 291 292 292 292 291 291 291 291 291 291 291 290 290 289 289 288 287 286 286 286 286 287 287 288 288 289 289 290 290 291 291 291 291 291 292 292 292 292 292 292 292 292 291 291 291 291 291 291 291 291 292 292 292 291 291
270 272 273 274 275 277 280 279 277 277 277 278 278 278 278 280 280 279 279 279 280 281 281 282 283 284 285 287 288 289 290 292 292 292 292 291 291 291 291 291 291 291 290 290 289 288 287 286 285 285 285 286 286 286 287 287 288 289 290 290 291 291 291 292 292 292 293 293 293 292 292 292 292 292 291 292 292 292 292 292 293 294 294 294 293 292 292
272 273 274 275 276 279 281 280 279 279 278 277 277 279 282 283 281 279 280 281 281 282 283 283 284 285 287 288 289 290 291 292 292 292 291 291 291 291 292 292 291 290 289 288 286 285 284 284 284 284 285 285 286 286 286 287 288 289 290 290 291 292 292 292 293 293 293 293 292 292 292 292 292 292 292 293 293 294 294 295 296 296 295 295 294 294 294
272 273 274 276 277 279 282 281 280 279 278 277 278 281 284 284 281 281 282 282 283 283 284 284 285 287 288 289 290 290 291 291 291 290 290 290 291 292 292 291 290 288 286 285 284 283 283 284 284 285 285 286 286 286 287 288 288 289 290 291 292 292 293 293 293 293 293 293 293 293 293 293 293 294 294 295 295 295 296 297 297 297 296 295 295 295 296
272 273 275 276 277 279 281 281 280 279 279 280 282 284 284 283 283 284 283 283 284 284 285 286 287 288 289 290 290 290 290 290 289 290 290 292 292 292 292 290 288 286 285 285 284 284 284 285 285 286 287 287 287 287 288 288 289 290 291 292 292 293 294 294 294 294 294 294 294 294 294 294 295 296 296 296 297 297 298 298 298 297 296 295 296 297 299
274 274 274 275 278 280 280 279 280 281 282 283 285 286 285 285 285 284 284 285 286 286 287 288 288 289 290 290 290 289 289 289 290 291 292 293 293 292 290 287 285 284 284 284 284 285 285 286 286 287 287 287 287 288 288 289 290 291 292 293 294 294 295 295 295 295 295 295 295 295 296 296 297 297 297 298 298 299 299 299 298 296 295 296 298 300 302
273 274 274 276 279 281 280 279 281 283 284 285 286 286 286 286 285 285 286 287 287 287 288 288 289 289 290 290 289 289 290 290 292 293 293 293 293 291 288 285 284 283 283 283 284 285 285 286 286 287 287 287 287 288 289 290 291 292 294 295 295 296 296 296 296 296 297 297 297 297 297 297 298 298 299 299 299 299 299 298 296 294 295 297 301 303 306
273 274 275 277 279 280 280 281 283 284 286 286 286 286 286 286 287 287 288 288 288 288 289 289 290 290 290 290 290 290 291 292 293 293 294 293 293 291 288 285 285 284 284 284 285 285 286 286 286 287 287 288 288 289 290 292 293 294 296 296 297 297 297 297 297 297 297 297 297 298 298 298 299 299 299 299 299 300 299 296 294 294 297 300 303 306 310
274 275 276 278 280 281 281 283 284 285 285 286 287 288 288 287 288 288 289 289 290 290 290 290 290 290 290 290 290 291 293 293 293 294 294 294 292 289 287 286 285 285 285 285 286 286 287 287 287 288 288 289 290 291 292 294 295 296 297 297 297 298 298 298 298 297 297 297 298 298 299 299 300 300 299 299 300 299 297 294 293 296 299 301 304 308 311
275 276 278 281 282 282 283 284 284 284 285 287 288 287 287 287 288 289 289 290 290 289 289 289 289 289 290 290 291 293 293 293 293 293 293 291 289 286 284 284 284 284 285 285 286 286 287 287 288 289 290 291 292 293 294 295 296 297 298 298 298 298 298 298 297 297 297 297 298 298 299 299 300 299 299 300 300 298 294 293 296 298 300 303 306 309 310
277 278 280 282 283 283 283 283 284 285 287 288 287 285 285 286 287 288 288 287 287 287 287 288 288 289 290 292 293 293 292 292 292 292 291 289 286 283 282 282 283 283 284 285 285 286 287 288 289 290 291 293 294 294 295 296 297 297 298 298 298 298 298 297 297 297 297 297 297 298 298 299 300 300 300 300 299 296 295 296 298 300 301 303 306 307 308
278 279 282 283 282 281 281 282 284 286 286 286 285 284 285 285 286 285 285 285 285 285 286 287 288 290 291 292 292 290 290 290 290 290 289 286 284 283 283 283 284 284 285 285 286 287 288 289 290 291 293 294 294 295 296 297 297 297 298 298 298 298 297 297 296 296 296 297 297 298 299 299 300 300 301 300 296 294 296 299 300 301 302 304 306 307 308
278 280 282 282 280 279 280 282 284 284 284 283 283 283 284 284 285 284 284 284 284 286 287 288 288 289 290 290 289 288 288 289 289 289 288 286 285 285 285 285 286 286 286 287 287 288 289 290 291 293 293 294 295 295 296 297 297 298 298 298 298 297 296 296 296 296 296 296 297 298 299 299 299 301 301 299 296 295 297 300 302 304 305 306 307 308 310
281 282 282 281 280 280 282 283 282 282 282 282 282 283 283 284 284 284 284 285 286 287 288 288 288 289 289 288 287 288 289 290 290 289 288 288 288 288 287 287 287 287 287 288 288 289 290 291 292 293 294 294 295 296 297 297 298 298 298 298 297 296 296 296 295 295 296 296 297 299 300 299 300 300 298 296 297 300 300 300 303 306 307 307 308 309 311
281 282 282 282 282 283 283 283 282 281 281 282 282 283 283 284 284 285 285 286 287 288 288 288 289 289 289 289 289 290 291 291 291 290 290 291 290 290 289 288 288 288 288 288 289 289 291 292 292 293 293 293 294 296 297 297 298 298 298 297 297 296 295 295 295 295 296 297 298 299 300 300 300 299 293 290 294 300 302 304 305 306 306 307 308 310 311
281 283 285 284 284 285 286 285 284 283 283 284 284 284 285 286 286 285 285 287 288 288 288 288 289 290 289 289 290 291 291 292 292 292 293 293 292 291 290 289 289 290 289 289 290 290 291 291 292 292 292 293 295 296 297 297 298 298 297 297 296 295 295 295 295 296 297 298 299 300 300 300 299 296 291 288 291 294 299 304 307 308 308 308 308 310 311
283 286 287 286 287 289 289 289 287 287 287 287 286 287 287 286 285 285 286 288 289 289 289 290 290 290 290 290 291 292 292 293 294 295 295 295 294 292 292 291 291 291 290 290 290 290 290 291 291 292 292 294 295 297 297 297 297 297 296 296 296 295 295 295 296 297 298 299 300 300 300 300 298 293 290 291 291 291 294 301 305 307 309 311 311 312 313
284 288 289 288 288 290 290 289 289 289 290 289 288 288 287 285 285 287 288 289 290 290 291 292 291 291 292 292 293 293 294 296 297 298 298 297 295 294 293 292 291 290 290 289 289 289 289 290 291 292 292 294 296 297 297 297 296 296 296 296 296 296 296 296 297 298 299 300 300 300 300 299 296 291 289 292 293 294 296 300 302 304 307 311 313 315 316
288 290 288 286 286 288 288 288 290 292 292 290 289 288 288 287 288 289 290 290 290 290 291 292 292 293 293 293 294 294 296 298 301 302 301 298 296 294 293 291 290 290 289 288 288 288 289 290 291 291 292 294 296 296 296 296 296 296 296 297 297 297 297 298 298 299 300 300 300 300 300 298 293 289 290 292 293 296 299 302 303 304 306 310 313 316 317
290 287 283 282 284 286 286 287 290 293 293 291 290 290 290 290 290 290 290 289 289 289 291 292 292 292 293 294 294 295 296 299 302 303 302 301 299 297 295 293 291 290 289 288 288 288 289 290 290 291 293 294 295 295 294 295 295 296 297 297 298 298 298 298 299 299 300 301 301 300 299 296 290 288 290 292 294 298 301 303 305 306 308 310 313 315 318
286 282 280 281 283 284 286 288 290 291 290 289 291 292 292 292 291 290 289 288 288 290 291 291 292 293 294 295 295 296 298 300 303 304 304 303 301 299 298 296 293 291 290 289 289 289 289 290 290 292 293 294 293 293 293 294 295 296 297 297 297 298 298 298 299 299 299 300 300 299 297 293 287 286 290 293 295 299 303 305 306 308 310 311 313 315 317
282 280 279 280 281 284 287 288 288 287 286 287 290 293 294 292 290 289 288 288 289 291 291 292 293 294 296 296 297 297 298 300 302 304 305 304 304 303 302 301 298 295 292 290 289 289 289 289 291 292 292 291 291 291 292 293 294 295 295 296 296 297 297 297 298 298 298 299 299 297 294 289 285 285 289 293 297 301 304 306 308 309 311 313 314 316 318
279 277 276 276 279 284 285 283 282 282 284 286 290 293 294 291 289 289 290 289 290 290 291 291 293 294 296 296 296 296 297 299 301 303 304 305 307 308 307 305 302 298 294 290 288 288 288 289 290 291 290 289 289 290 292 293 294 294 294 294 295 296 296 296 297 298 298 298 297 293 288 284 281 283 288 293 297 301 304 306 309 311 313 315 316 318 319
276 277 277 278 279 281 281 280 280 281 283 286 289 292 291 290 290 290 290 289 289 289 289 290 291 293 294 294 293 294 296 297 299 301 303 306 308 310 310 307 303 298 294 290 288 287 287 288 289 289 288 287 287 289 291 293 294 294 294 294 295 295 295 295 296 297 298 297 294 288 281 277 277 282 288 293 297 301 304 307 309 312 314 316 318 319 321
277 278 279 279 279 279 279 279 279 280 283 286 288 289 289 288 289 289 288 288 287 287 288 288 289 290 291 291 292 293 294 295 297 299 302 305 308 310 310 308 304 299 294 290 288 287 287 286 286 286 285 285 286 287 289 291 292 293 293 294 294 295 294 294 296 298 298 296 291 282 273 271 274 281 288 294 298 302 304 307 311 314 316 317 319 321 322
276 276 276 276 277 278 278 278 279 280 283 285 286 286 286 287 288 289 287 286 286 287 287 287 287 288 289 289 290 291 293 294 296 298 301 304 307 309 310 309 306 301 295 290 288 287 286 285 284 284 283 283 284 285 287 289 291 291 292 293 294 294 294 296 298 299 297 294 285 273 266 267 274 282 289 295 299 302 305 308 311 314 316 318 319 321 322
274 273 273 274 274 275 277 278 279 281 283 284 285 285 286 287 288 287 286 285 286 287 287 286 286 286 287 288 289 291 291 292 294 296 299 303 306 308 309 309 306 302 296 291 288 287 286 284 283 282 282 282 283 284 286 288 289 290 291 292 293 294 296 298 299 298 295 288 276 264 261 266 274 283 290 296 300 303 306 309 312 314 316 318 319 320 322
273 273 273 272 272 274 276 278 278 280 282 283 285 286 286 286 286 285 285 286 287 287 286 285 284 285 286 288 289 290 290 291 293 296 299 302 305 307 308 307 305 301 297 293 289 288 286 284 282 282 282 282 283 284 286 288 289 290 291 291 293 295 298 299 298 296 290 279 264 256 258 266 275 284 291 296 300 303 306 310 313 315 316 318 319 320 322
273 274 273 272 272 273 275 276 278 279 281 283 284 284 284 284 284 285 286 287 287 286 285 284 283 284 286 287 288 288 289 291 293 295 298 301 304 306 306 305 303 300 298 295 292 289 286 284 283 283 283 283 284 285 286 288 289 290 290 291 294 297 298 297 296 291 281 265 253 252 258 268 278 286 292 296 300 303 307 311 314 315 316 317 318 320 322
273 273 273 272 272 273 274 276 278 279 281 282 283 283 283 284 285 286 287 287 286 285 283 282 282 283 285 287 287 288 288 290 292 295 298 301 303 304 304 303 301 299 298 296 293 291 288 286 285 284 284 284 285 286 286 287 288 289 290 293 296 296 296 295 292 283 266 250 247 252 260 271 281 288 293 297 300 304 308 312 314 315 316 317 318 320 322
274 275 275 276 276 276 277 278 279 280 281 282 283 284 285 286 287 287 287 286 285 283 282 281 281 283 285 286 286 287 288 290 293 295 298 300 302 302 302 301 299 297 297 295 293 291 289 288 287 286 285 285 285 286 286 287 288 290 292 294 294 293 292 291 283 266 248 243 247 254 264 275 284 290 293 296 300 306 310 313 314 315 316 317 319 321 323
277 278 278 279 280 280 280 280 281 282 283 284 285 286 287 288 288 287 286 284 283 282 281 281 282 284 285 285 286 287 289 291 293 295 298 299 300 300 300 299 297 295 295 294 291 289 288 287 286 286 286 285 285 285 286 287 289 291 292 292 290 289 288 282 265 246 239 242 249 259 269 279 285 290 293 297 302 308 312 313 314 316 317 319 320 322 324
279 280 280 281 281 281 282 282 282 283 284 285 287 288 288 288 287 286 284 283 282 281 281 282 283 284 285 285 286 287 289 291 293 295 297 297 297 298 298 297 295 293 293 291 289 287 286 285 285 285 285 284 285 285 286 287 289 289 288 286 285 285 280 263 243 235 238 245 254 265 274 281 287 291 294 299 305 309 312 314 315 317 318 320 321 323 324
281 282 282 282 283 283 284 284 284 285 286 286 287 287 287 286 285 284 283 282 282 282 282 283 283 284 284 285 287 288 290 291 293 294 295 296 296 296 296 294 293 291 290 289 288 287 286 285 285 284 284 284 284 284 285 285 285 283 281 281 281 276 261 240 230 232 240 248 259 269 277 283 288 292 295 301 306 309 312 314 316 318 320 321 322 323 324
283 283 284 284 285 286 286 286 286 286 287 287 287 286 285 284 283 283 283 282 283 283 283 283 283 284 285 287 288 289 290 291 292 294 295 295 295 294 294 292 291 290 289 288 287 286 285 285 284 284 283 283 283 282 281 280 278 276 275 276 272 258 238 228 229 235 243 253 264 272 279 285 289 292 297 302 306 309 313 315 317 319 321 322 323 324 324
284 285 285 286 287 287 287 287 288 288 288 288 288 286 285 284 283 283 283 283 283 283 283 283 285 286 288 288 289 289 290 291 293 294 294 294 293 292 292 291 291 290 289 288 287 286 284 283 282 281 281 280 279 277 275 273 270 269 270 266 254 236 225 225 231 239 248 258 267 274 281 286 290 293 298 302 306 310 313 316 318 320 322 322 323 324 324
284 284 285 286 287 287 287 288 289 289 290 289 288 287 286 285 284 283 282 282 283 283 285 286 287 288 289 289 289 289 291 292 293 294 294 293 292 292 292 291 291 290 289 288 286 285 283 281 279 278 276 274 272 270 268 265 263 263 260 249 233 222 221 227 234 243 252 261 268 276 283 287 290 294 298 302 305 309 313 316 319 321 322 322 323 324 324
283 284 285 285 286 287 287 288 289 290 290 290 288 287 286 285 284 283 284 285 286 287 288 289 289 288 288 289 290 291 292 293 293 294 293 293 293 293 293 292 291 290 288 287 286 284 282 279 276 273 270 267 265 262 259 257 256 254 245 230 219 217 222 229 237 246 255 263 271 279 284 288 291 295 298 301 305 309 312 316 319 320 321 322 323 323 324
282 283 284 285 286 287 288 289 290 291 291 289 287 286 285 285 285 287 288 289 290 290 289 289 288 288 289 290 292 292 293 293 294 294 294 294 294 294 293 292 291 290 289 288 286 283 279 275 271 267 262 258 255 252 249 247 246 239 226 215 213 217 225 231 240 250 259 268 276 282 285 289 293 296 299 302 305 308 312 315 318 320 321 322 322 323 324
283 284 285 286 287 288 289 290 291 290 289 287 286 286 286 287 289 290 291 291 290 290 289 289 289 290 291 292 293 293 294 294 295 295 295 295 295 294 294 294 294 293 292 288 284 279 273 268 263 258 253 248 243 240 238 237 233 223 212 209 213 220 226 234 244 254 264 273 280 284 287 291 294 297 299 302 305 308 312 315 317 319 320 321 322 323 323
284 285 286 287 288 288 289 289 289 289 288 288 288 288 288 289 290 290 290 290 290 289 290 290 291 292 292 293 293 294 295 295 296 295 295 295 295 295 297 298 297 295 292 287 281 273 265 258 252 248 242 235 229 227 226 225 218 209 205 207 214 221 228 237 248 259 268 276 282 285 288 292 296 298 301 304 307 309 311 314 316 318 320 320 321 322 322
285 285 286 287 287 288 288 289 289 289 289 288 288 288 288 289 289 290 290 290 290 290 291 291 292 293 293 294 295 295 295 295 295 295 295 295 297 299 301 301 299 296 291 285 276 265 254 245 239 233 225 219 215 215 215 211 205 201 202 208 215 223 232 242 253 263 272 279 283 287 290 294 298 301 304 306 307 309 311 313 315 317 318 319 319 320 321
284 285 286 287 287 287 288 288 288 288 287 287 288 288 289 290 290 290 290 291 291 291 292 292 293 294 295 295 295 295 295 294 294 294 295 297 300 303 304 302 300 297 291 281 265 249 237 228 221 214 208 205 206 206 203 198 196 197 203 210 217 226 237 248 258 268 276 281 284 288 292 296 300 303 305 306 307 308 310 312 315 316 317 318 318 319 320
Height
5652 5651 5648 5649 5650 5648 5649 5650 5652 5655 5653 5646 5637 5634 5636 5636 5627 5625 5634 5633 5625 5627 5633 5631 5628 5626 5623 5622 5622 5622 5621 5620 5618 5616 5614 5611 5609 5606 5604 5601 5599 5597 5595 5593 5591 5588 5585 5582 5579 5577 5574 5571 5568 5565 5562 5559 5556 5553 5551 5547 5544 5541 5538 5535 5532 5529 5526 5524 5521 5518 5515 5512 5510 5508 5506 5504 5502 5501 5499 5497 5496 5494 5492 5490 5488 5487 5485
5643 5642 5640 5641 5641 5638 5639 5642 5644 5646 5643 5636 5631 5631 5633 5628 5619 5619 5623 5619 5617 5622 5623 5620 5619 5617 5614 5613 5614 5614 5613 5610 5608 5606 5604 5602 5600 5597 5594 5592 5589 5588 5586 5584 5581 5578 5575 5571 5568 5565 5562 5559 5556 5553 5550 5546 5543 5541 5538 5534 5531 5528 5524 5521 5519 5516 5513 5510 5507 5504 5502 5499 5497 5495 5493 5491 5489 5487 5485 5483 5481 5479 5477 5475 5473 5471 5469
5631 5633 5632 5631 5631 5628 5628 5632 5636 5635 5631 5628 5629 5629 5625 5619 5613 5613 5612 5606 5608 5618 5617 5609 5608 5608 5607 5607 5606 5604 5603 5601 5600 5598 5595 5593 5590 5587 5585 5583 5580 5578 5576 5574 5571 5567 5564 5560 5556 5553 5550 5547 5544 5541 5537 5534 5531 5528 5524 5521 5519 5516 5513 5510 5507 5505 5502 5499 5496 5494 5491 5489 5487 5485 5483 5481 5478 5476 5474 5472 5469 5467 5465 5463 5460 5458 5455
5620 5624 5623 5621 5621 5618 5617 5622 5628 5627 5623 5622 5623 5619 5615 5612 5607 5604 5601 5597 5601 5609 5607 5600 5598 5599 5600 5599 5597 5595 5594 5592 5591 5589 5587 5584 5581 5578 5576 5574 5571 5569 5566 5563 5559 5556 5552 5548 5545 5541 5538 5535 5532 5528 5525 5522 5518 5515 5512 5509 5507 5504 5502 5500 5497 5495 5492 5490 5487 5484 5482 5480 5478 5476 5474 5471 5469 5467 5465 5462 5460 5458 5455 5452 5450 5447 5443
5610 5614 5613 5613 5612 5605 5605 5616 5622 5619 5616 5614 5610 5607 5607 5606 5600 5594 5592 5592 5594 5596 5593 5590 5591 5591 5590 5589 5587 5585 5584 5583 5581 5580 5577 5574 5571 5568 5566 5564 5561 5558 5555 5552 5548 5545 5541 5537 5533 5530 5527 5524 5520 5517 5514 5510 5507 5504 5501 5498 5496 5494 5492 5489 5487 5485 5482 5480 5477 5475 5472 5470 5468 5466 5463 5461 5459 5456 5454 5452 5449 5448 5445 5442 5439 5436 5432
5601 5602 5603 5603 5597 5593 5600 5613 5614 5609 5607 5604 5599 5598 5600 5598 5592 5588 5586 5585 5586 5584 5582 5582 5581 5581 5580 5578 5577 5576 5574 5573 5572 5570 5567 5564 5560 5558 5556 5554 5551 5548 5545 5541 5538 5534 5530 5526 5522 5519 5515 5512 5509 5506 5503 5499 5496 5493 5490 5488 5486 5484 5482 5479 5477 5475 5472 5470 5467 5465 5462 5460 5458 5455 5453 5450 5448 5445 5443 5441 5438 5436 5434 5431 5428 5424 5420
5591 5592 5593 5587 5581 5588 5600 5604 5601 5598 5598 5596 5591 5589 5591 5590 5586 5582 5579 5577 5577 5574 5573 5573 5572 5570 5570 5568 5567 5566 5564 5563 5562 5559 5556 5554 5550 5547 5545 5543 5541 5538 5534 5530 5526 5523 5518 5515 5511 5507 5504 5501 5498 5495 5492 5489 5486 5484 5481 5479 5476 5474 5472 5469 5467 5464 5461 5459 5457 5455 5453 5450 5448 5445 5442 5439 5437 5434 5431 5429 5427 5424 5421 5419 5416 5412 5409
5581 5581 5581 5575 5572 5583 5594 5592 5590 5591 5590 5586 5581 5577 5581 5584 5580 5574 5571 5570 5568 5566 5564 5564 5563 5561 5560 5559 5557 5556 5553 5552 5551 5549 5546 5543 5540 5536 5534 5531 5529 5525 5521 5518 5515 5511 5507 5504 5500 5496 5493 5490 5487 5485 5482 5480 5477 5475 5473 5471 5468 5465 5463 5460 5457 5454 5452 5450 5447 5445 5443 5440 5437 5434 5431 5428 5425 5422 5420 5418 5415 5412 5409 5406 5403 5400 5397
5573 5572 5570 5568 5565 5571 5583 5586 5584 5582 5579 5574 5569 5565 5571 5578 5573 5565 5563 5562 5559 5557 5556 5554 5554 5553 5551 5551 5549 5545 5543 5542 5540 5537 5535 5531 5528 5525 5522 5520 5517 5513 5510 5506 5503 5500 5496 5493 5490 5487 5483 5481 5478 5476 5474 5471 5469 5467 5466 5463 5461 5458 5455 5452 5449 5445 5443 5441 5439 5436 5433 5430 5427 5424 5421 5418 5414 5411 5409 5407 5404 5401 5398 5395 5391 5387 5385
5565 5563 5561 5560 5556 5560 5574 5581 5576 5571 5567 5563 5559 5554 5559 5569 5567 5557 5554 5552 5550 5549 5548 5546 5546 5544 5542 5544 5542 5534 5530 5531 5529 5526 5523 5520 5516 5514 5511 5508 5505 5502 5499 5496 5492 5489 5486 5483 5480 5478 5475 5473 5471 5469 5466 5464 5462 5460 5458 5455 5453 5450 5447 5443 5440 5437 5434 5432 5429 5427 5424 5420 5417 5414 5411 5408 5404 5401 5398 5396 5394 5390 5387 5385 5381 5376 5373
5559 5557 5552 5550 5548 5553 5566 5568 5563 5562 5559 5554 5549 5542 5546 5560 5559 5547 5544 5544 5542 5541 5539 5538 5538 5535 5534 5536 5534 5525 5520 5520 5518 5514 5511 5508 5505 5503 5500 5497 5495 5492 5489 5486 5483 5480 5478 5475 5472 5470 5468 5466 5464 5462 5459 5457 5455 5452 5450 5448 5445 5442 5439 5435 5432 5428 5425 5422 5420 5417 5414 5410 5407 5404 5401 5398 5395 5392 5388 5385 5383 5380 5376 5373 5370 5366 5362
5553 5549 5543 5542 5542 5548 5556 5555 5552 5551 5548 5544 5540 5535 5538 5548 5545 5537 5536 5535 5533 5532 5530 5528 5529 5528 5525 5525 5523 5517 5512 5510 5506 5502 5500 5497 5494 5492 5490 5487 5484 5482 5480 5477 5475 5472 5470 5468 5465 5463 5461 5459 5457 5455 5453 5450 5448 5445 5443 5440 5437 5434 5430 5427 5423 5420 5417 5413 5410 5407 5404 5401 5398 5394 5391 5388 5385 5382 5378 5375 5372 5369 5366 5362 5359 5357 5352
5546 5542 5537 5534 5536 5543 5547 5543 5540 5540 5534 5532 5533 5533 5532 5532 5530 5529 5529 5526 5524 5523 5521 5519 5520 5519 5516 5514 5511 5508 5504 5501 5497 5492 5489 5487 5485 5483 5480 5477 5475 5473 5470 5468 5466 5464 5462 5460 5458 5456 5454 5452 5450 5448 5445 5443 5441 5438 5436 5432 5429 5425 5422 5418 5414 5411 5408 5404 5401 5397 5394 5391 5389 5385 5381 5378 5375 5372 5368 5366 5362 5359 5356 5352 5350 5348 5344
5538 5536 5531 5525 5527 5539 5540 5530 5526 5527 5524 5522 5525 5526 5523 5520 5519 5519 5518 5516 5516 5514 5510 5510 5510 5508 5506 5503 5500 5497 5494 5491 5488 5483 5479 5478 5476 5474 5471 5468 5466 5463 5462 5460 5458 5456 5454 5452 5451 5449 5447 5445 5442 5440 5437 5436 5433 5431 5428 5425 5421 5417 5413 5409 5405 5402 5399 5395 5392 5388 5385 5381 5379 5376 5372 5368 5365 5362 5359 5356 5353 5350 5347 5344 5341 5340 5336
5530 5527 5524 5518 5520 5530 5530 5519 5515 5516 5514 5515 5516 5514 5511 5509 5509 5507 5506 5506 5506 5503 5500 5500 5499 5498 5496 5493 5489 5486 5483 5480 5478 5475 5471 5469 5467 5465 5463 5460 5458 5456 5454 5452 5450 5448 5446 5445 5443 5441 5439 5437 5435 5432 5430 5428 5425 5423 5420 5416 5412 5408 5404 5400 5397 5394 5390 5387 5383 5379 5376 5372 5370 5367 5363 5359 5356 5353 5350 5347 5345 5343 5340 5337 5334 5332 5329
5520 5517 5515 5513 5515 5519 5516 5510 5508 5507 5505 5506 5506 5502 5499 5498 5497 5496 5496 5496 5495 5492 5490 5489 5487 5486 5486 5482 5478 5475 5472 5470 5468 5466 5464 5461 5458 5457 5455 5452 5451 5449 5446 5445 5443 5441 5439 5437 5435 5434 5431 5429 5427 5424 5422 5420 5417 5414 5411 5407 5403 5400 5395 5392 5389 5385 5382 5378 5374 5370 5367 5363 5361 5358 5354 5351 5348 5344 5341 5338 5337 5335 5333 5330 5327 5324 5321
5510 5508 5507 5508 5510 5510 5504 5499 5499 5498 5496 5496 5494 5492 5490 5488 5485 5485 5484 5484 5483 5481 5479 5477 5475 5474 5473 5470 5467 5465 5462 5461 5459 5457 5455 5453 5451 5449 5447 5444 5443 5441 5439 5437 5435 5433 5431 5430 5428 5426 5423 5421 5419 5416 5414 5412 5409 5406 5402 5398 5395 5391 5387 5383 5380 5376 5373 5369 5365 5362 5358 5355 5352 5349 5346 5343 5340 5337 5333 5330 5329 5328 5326 5323 5320 5317 5314
5503 5500 5499 5500 5502 5500 5494 5490 5490 5489 5487 5487 5484 5481 5479 5476 5474 5474 5472 5471 5471 5468 5466 5465 5463 5462 5461 5459 5457 5455 5454 5452 5450 5448 5447 5446 5444 5442 5439 5437 5435 5433 5431 5429 5427 5425 5424 5421 5419 5418 5415 5413 5411 5408 5406 5403 5400 5397 5393 5389 5386 5382 5378 5375 5372 5368 5365 5361 5357 5354 5350 5347 5344 5341 5337 5335 5333 5329 5326 5324 5323 5321 5319 5316 5313 5310 5307
5494 5491 5492 5494 5492 5489 5484 5481 5480 5479 5479 5479 5476 5470 5467 5465 5464 5462 5461 5460 5459 5457 5455 5453 5452 5451 5451 5449 5448 5447 5445 5443 5442 5441 5440 5439 5437 5435 5433 5430 5428 5426 5424 5421 5419 5417 5415 5413 5411 5409 5406 5404 5402 5399 5397 5394 5391 5388 5384 5381 5377 5374 5370 5367 5364 5360 5357 5354 5350 5347 5343 5340 5337 5334 5330 5327 5325 5322 5319 5318 5317 5315 5312 5310 5307 5304 5302
5485 5483 5487 5487 5481 5476 5474 5472 5470 5470 5470 5470 5466 5460 5457 5457 5455 5453 5452 5450 5448 5447 5446 5444 5443 5442 5442 5441 5439 5438 5436 5435 5434 5433 5432 5431 5430 5428 5426 5424 5421 5419 5416 5414 5412 5410 5407 5405 5403 5400 5398 5395 5393 5391 5388 5386 5382 5379 5376 5372 5369 5366 5362 5359 5356 5352 5349 5346 5343 5340 5337 5333 5330 5327 5323 5320 5318 5316 5313 5311 5310 5308 5306 5304 5301 5298 5296
5477 5476 5480 5479 5470 5464 5464 5464 5464 5464 5462 5459 5455 5451 5449 5448 5447 5445 5443 5441 5440 5439 5438 5437 5435 5434 5434 5433 5431 5430 5429 5428 5426 5425 5425 5424 5422 5420 5418 5416 5413 5411 5408 5406 5404 5402 5399 5397 5395 5392 5389 5386 5384 5382 5380 5377 5374 5371 5367 5365 5361 5358 5354 5351 5348 5345 5342 5339 5335 5333 5330 5327 5324 5320 5316 5313 5311 5310 5308 5305 5303 5301 5299 5297 5294 5291 5289
5469 5470 5472 5468 5459 5454 5456 5459 5459 5456 5453 5450 5446 5443 5441 5440 5438 5436 5434 5433 5432 5432 5431 5430 5428 5427 5427 5426 5424 5422 5422 5421 5419 5418 5417 5415 5414 5412 5410 5408 5405 5403 5400 5398 5396 5393 5391 5389 5387 5384 5381 5377 5375 5373 5371 5368 5365 5362 5359 5357 5353 5350 5347 5344 5341 5338 5335 5332 5328 5325 5323 5320 5318 5315 5311 5307 5304 5304 5303 5300 5297 5294 5292 5290 5287 5284 5282
5460 5462 5461 5456 5449 5446 5449 5452 5451 5448 5445 5442 5439 5437 5436 5433 5431 5429 5426 5425 5425 5425 5424 5423 5421 5420 5420 5419 5416 5415 5414 5413 5412 5410 5408 5407 5405 5404 5401 5399 5397 5395 5392 5390 5388 5385 5383 5381 5379 5376 5372 5369 5367 5365 5362 5359 5357 5354 5351 5349 5346 5343 5340 5337 5334 5331 5328 5325 5322 5319 5316 5313 5311 5309 5307 5303 5299 5297 5295 5294 5292 5289 5287 5284 5282 5278 5275
5451 5452 5450 5445 5440 5439 5441 5442 5441 5439 5437 5435 5432 5430 5429 5427 5424 5422 5420 5419 5419 5418 5417 5416 5415 5413 5412 5410 5408 5407 5406 5405 5403 5401 5400 5399 5397 5395 5393 5391 5389 5387 5385 5382 5380 5377 5375 5373 5370 5368 5364 5361 5360 5357 5354 5351 5348 5345 5343 5340 5338 5335 5333 5330 5327 5324 5321 5318 5316 5313 5310 5307 5304 5302 5301 5300 5297 5293 5290 5288 5286 5284 5282 5280 5277 5273 5270
5441 5441 5440 5435 5431 5431 5432 5432 5431 5430 5429 5427 5424 5423 5422 5421 5418 5416 5414 5413 5412 5411 5410 5409 5408 5406 5404 5403 5401 5400 5399 5397 5395 5394 5392 5390 5388 5386 5384 5382 5380 5378 5376 5374 5371 5369 5366 5364 5362 5359 5356 5354 5352 5350 5347 5344 5341 5338 5335 5333 5330 5328 5326 5323 5321 5318 5315 5312 5309 5306 5303 5300 5298 5296 5294 5293 5293 5291 5287 5284 5281 5278 5275 5273 5271 5269 5265
5433 5433 5431 5427 5424 5425 5425 5423 5421 5422 5422 5420 5417 5417 5416 5414 5412 5410 5408 5407 5405 5404 5402 5402 5401 5399 5397 5396 5395 5393 5392 5390 5388 5387 5385 5383 5380 5378 5376 5374 5372 5370 5367 5365 5363 5360 5358 5356 5354 5351 5348 5346 5345 5342 5339 5336 5333 5330 5328 5326 5323 5321 5319 5317 5314 5312 5309 5306 5303 5300 5297 5294 5292 5290 5288 5287 5286 5285 5283 5281 5278 5274 5270 5267 5264 5262 5260
5427 5426 5424 5420 5418 5419 5418 5415 5413 5414 5415 5413 5410 5410 5409 5407 5405 5404 5402 5401 5399 5397 5395 5394 5393 5392 5390 5389 5388 5386 5385 5383 5381 5380 5377 5375 5372 5370 5368 5366 5364 5361 5359 5357 5354 5352 5350 5348 5346 5343 5340 5338 5337 5335 5332 5329 5326 5324 5321 5319 5317 5314 5312 5310 5308 5305 5302 5299 5296 5294 5291 5288 5286 5284 5283 5281 5280 5278 5277 5275 5273 5270 5267 5262 5258 5255 5253
5422 5421 5418 5413 5412 5413 5412 5408 5407 5407 5408 5406 5404 5403 5402 5400 5399 5398 5396 5395 5393 5391 5389 5388 5387 5385 5384 5383 5381 5379 5378 5376 5374 5373 5370 5367 5365 5362 5360 5358 5355 5353 5351 5349 5346 5344 5342 5340 5338 5335 5333 5331 5330 5327 5324 5322 5320 5317 5315 5313 5310 5308 5306 5303 5301 5299 5296 5293 5290 5288 5285 5283 5280 5279 5277 5276 5275 5273 5271 5269 5267 5264 5261 5258 5254 5249 5246
5417 5415 5410 5407 5406 5405 5404 5402 5402 5401 5401 5399 5397 5396 5395 5394 5392 5391 5390 5389 5387 5385 5384 5382 5381 5379 5378 5377 5375 5373 5371 5370 5368 5365 5363 5360 5357 5355 5352 5350 5347 5345 5343 5340 5338 5336 5334 5332 5330 5328 5325 5324 5322 5320 5317 5316 5314 5311 5309 5307 5304 5302 5300 5297 5295 5293 5290 5287 5284 5282 5279 5277 5275 5273 5272 5271 5269 5267 5265 5263 5261 5259 5256 5253 5250 5246 5241
5409 5406 5403 5401 5400 5398 5396 5396 5396 5395 5394 5392 5390 5389 5388 5387 5386 5385 5385 5383 5381 5380 5378 5377 5375 5374 5372 5370 5368 5367 5365 5363 5361 5358 5355 5353 5350 5347 5344 5342 5339 5337 5335 5332 5330 5328 5326 5325 5323 5320 5318 5317 5315 5313 5311 5309 5307 5305 5303 5300 5298 5296 5293 5291 5289 5287 5284 5281 5278 5275 5273 5271 5270 5268 5267 5265 5264 5262 5260 5258 5255 5253 5250 5247 5245 5242 5238
5400 5397 5396 5395 5393 5391 5390 5389 5389 5388 5387 5385 5383 5383 5382 5380 5379 5379 5378 5377 5375 5374 5372 5370 5369 5367 5365 5363 5362 5360 5358 5356 5353 5351 5348 5345 5342 5339 5337 5334 5331 5329 5326 5324 5322 5320 5319 5317 5315 5313 5312 5310 5308 5306 5305 5303 5301 5299 5296 5294 5292 5289 5287 5285 5283 5280 5277 5275 5272 5270 5268 5266 5264 5263 5262 5260 5259 5257 5255 5252 5250 5247 5245 5242 5239 5236 5233
5391 5389 5388 5388 5386 5384 5382 5382 5381 5380 5379 5377 5377 5377 5376 5374 5373 5372 5372 5370 5369 5367 5366 5364 5362 5360 5359 5357 5355 5353 5351 5348 5346 5343 5340 5337 5334 5332 5329 5327 5324 5321 5319 5317 5314 5313 5311 5310 5308 5306 5305 5303 5301 5299 5298 5296 5294 5292 5289 5287 5285 5282 5280 5278 5275 5273 5270 5268 5265 5264 5262 5260 5259 5258 5257 5255 5254 5252 5250 5248 5245 5242 5239 5237 5234 5231 5227
5381 5380 5381 5380 5378 5375 5374 5374 5373 5372 5372 5371 5370 5370 5369 5368 5366 5366 5365 5363 5362 5360 5359 5357 5355 5354 5352 5350 5348 5346 5343 5341 5338 5335 5333 5330 5327 5324 5322 5319 5317 5314 5312 5309 5307 5305 5304 5303 5301 5299 5298 5296 5294 5292 5291 5289 5287 5285 5283 5280 5278 5275 5273 5270 5268 5265 5263 5260 5258 5257 5256 5254 5254 5253 5252 5250 5249 5247 5245 5243 5240 5237 5234 5231 5228 5225 5222
5372 5372 5372 5372 5370 5367 5366 5366 5365 5365 5364 5364 5363 5363 5362 5361 5360 5359 5358 5357 5355 5354 5351 5350 5348 5346 5344 5342 5340 5338 5336 5333 5331 5328 5325 5322 5320 5317 5315 5312 5309 5307 5304 5302 5299 5297 5296 5295 5294 5292 5290 5288 5287 5285 5284 5282 5280 5278 5276 5273 5271 5268 5266 5263 5260 5258 5255 5252 5250 5250 5249 5249 5248 5248 5247 5246 5244 5242 5240 5238 5235 5232 5229 5226 5223 5220 5216
5363 5362 5362 5363 5362 5359 5358 5358 5358 5357 5357 5356 5356 5355 5355 5354 5353 5352 5351 5349 5348 5346 5344 5342 5340 5338 5336 5335 5332 5330 5328 5325 5323 5320 5318 5315 5312 5310 5307 5304 5302 5299 5297 5294 5291 5290 5289 5287 5286 5285 5283 5281 5279 5278 5276 5275 5273 5271 5268 5266 5263 5261 5258 5255 5252 5250 5247 5245 5243 5243 5243 5243 5243 5243 5242 5241 5239 5237 5236 5233 5230 5228 5225 5222 5219 5216 5212
5352 5351 5352 5353 5353 5352 5351 5351 5350 5350 5350 5349 5348 5348 5347 5346 5345 5344 5342 5341 5340 5338 5336 5334 5332 5330 5328 5326 5324 5322 5320 5317 5315 5313 5310 5308 5305 5302 5300 5297 5294 5291 5289 5285 5283 5282 5281 5279 5277 5276 5274 5273 5271 5270 5268 5267 5265 5263 5261 5258 5256 5253 5250 5247 5244 5242 5239 5238 5237 5237 5238 5238 5238 5238 5237 5236 5234 5233 5231 5228 5226 5224 5221 5218 5215 5212 5208
5342 5342 5343 5344 5344 5344 5344 5344 5343 5343 5342 5341 5341 5340 5339 5338 5337 5335 5334 5333 5331 5329 5327 5325 5323 5321 5320 5318 5316 5314 5311 5309 5307 5305 5302 5299 5297 5294 5292 5289 5285 5283 5280 5277 5275 5273 5272 5271 5269 5267 5266 5264 5263 5261 5260 5259 5257 5255 5253 5250 5248 5246 5243 5240 5237 5234 5233 5232 5232 5233 5234 5234 5233 5233 5232 5231 5230 5228 5226 5224 5222 5219 5217 5214 5211 5208 5205
5335 5335 5335 5336 5336 5337 5336 5336 5336 5335 5334 5334 5333 5332 5330 5330 5328 5327 5325 5324 5322 5320 5319 5317 5314 5313 5311 5309 5307 5305 5303 5301 5299 5296 5293 5291 5288 5286 5283 5280 5277 5274 5271 5269 5267 5265 5263 5261 5259 5258 5257 5255 5254 5253 5252 5250 5249 5247 5245 5243 5240 5238 5235 5233 5230 5228 5227 5227 5227 5229 5229 5229 5229 5229 5228 5227 5226 5224 5222 5220 5218 5215 5213 5210 5207 5204 5201
5328 5328 5328 5329 5329 5329 5329 5329 5328 5327 5327 5326 5325 5323 5322 5321 5320 5318 5317 5315 5313 5312 5310 5308 5306 5304 5302 5300 5298 5296 5294 5292 5290 5287 5284 5282 5279 5277 5275 5271 5267 5264 5262 5261 5258 5256 5253 5251 5250 5249 5248 5246 5245 5244 5243 5242 5241 5239 5237 5235 5233 5230 5228 5226 5224 5222 5222 5223 5224 5225 5225 5225 5225 5224 5224 5223 5221 5219 5218 5216 5214 5211 5209 5206 5203 5200 5197
5322 5322 5322 5322 5322 5322 5322 5321 5320 5320 5319 5318 5316 5315 5314 5312 5311 5310 5308 5306 5305 5303 5301 5299 5298 5296 5294 5292 5290 5287 5285 5283 5281 5278 5275 5273 5270 5268 5266 5262 5257 5253 5252 5251 5249 5247 5244 5242 5241 5240 5239 5238 5237 5236 5235 5234 5233 5231 5230 5227 5225 5223 5222 5220 5218 5218 5218 5219 5220 5221 5221 5221 5221 5220 5220 5218 5217 5215 5213 5212 5210 5208 5205 5202 5199 5196 5193
5315 5315 5315 5315 5315 5315 5314 5314 5313 5312 5311 5309 5308 5307 5305 5304 5302 5301 5299 5297 5296 5294 5293 5291 5289 5287 5285 5283 5281 5278 5276 5273 5271 5268 5266 5263 5260 5258 5256 5253 5247 5243 5242 5241 5240 5237 5236 5234 5232 5231 5230 5229 5229 5228 5227 5226 5225 5224 5222 5220 5218 5217 5216 5214 5214 5214 5215 5216 5217 5217 5217 5217 5216 5216 5215 5214 5213 5211 5209 5208 5206 5204 5201 5199 5196 5192 5189
5309 5308 5308 5308 5308 5307 5307 5306 5305 5304 5302 5301 5300 5298 5296 5295 5293 5292 5290 5289 5287 5286 5284 5282 5280 5279 5277 5275 5272 5269 5266 5264 5261 5258 5256 5253 5250 5247 5246 5243 5238 5234 5232 5231 5230 5228 5226 5225 5224 5223 5222 5221 5220 5220 5219 5218 5217 5216 5214 5213 5212 5211 5210 5210 5210 5211 5212 5213 5213 5213 5213 5213 5212 5212 5211 5210 5208 5207 5206 5204 5202 5200 5198 5195 5192 5189 5185
5302 5301 5301 5301 5300 5299 5299 5298 5297 5295 5294 5292 5291 5289 5287 5286 5285 5283 5282 5281 5279 5277 5276 5274 5272 5270 5268 5265 5263 5260 5257 5254 5251 5248 5246 5243 5239 5236 5234 5232 5228 5224 5222 5221 5220 5218 5217 5215 5214 5214 5213 5212 5211 5211 5210 5210 5209 5208 5207 5207 5206 5206 5205 5206 5207 5208 5209 5209 5210 5209 5209 5209 5209 5208 5207 5206 5205 5203 5202 5200 5198 5196 5194 5191 5188 5185 5182
5294 5293 5293 5292 5291 5291 5290 5289 5288 5287 5285 5283 5282 5281 5279 5278 5276 5275 5274 5272 5270 5269 5267 5265 5263 5261 5259 5256 5254 5251 5247 5244 5241 5238 5235 5233 5228 5224 5221 5220 5218 5215 5212 5211 5209 5208 5206 5205 5204 5204 5203 5202 5202 5202 5202 5202 5202 5201 5201 5201 5201 5201 5201 5203 5204 5205 5205 5206 5206 5206 5206 5205 5205 5204 5203 5202 5201 5199 5198 5196 5194 5192 5190 5187 5184 5181 5178
5286 5285 5284 5284 5283 5282 5281 5280 5279 5278 5276 5275 5274 5272 5271 5270 5268 5267 5265 5264 5262 5260 5258 5256 5254 5252 5249 5246 5244 5241 5237 5234 5231 5228 5224 5221 5217 5213 5209 5208 5206 5204 5201 5199 5198 5196 5195 5194 5194 5194 5194 5194 5194 5194 5195 5195 5195 5195 5195 5196 5196 5197 5198 5199 5200 5201 5202 5202 5202 5202 5202 5202 5201 5200 5199 5198 5197 5195 5194 5192 5190 5188 5186 5183 5180 5178 5175
5278 5277 5277 5276 5275 5274 5273 5272 5271 5269 5268 5267 5266 5264 5263 5261 5260 5258 5257 5255 5253 5252 5249 5247 5245 5242 5239 5236 5233 5230 5226 5223 5219 5216 5213 5209 5206 5202 5199 5196 5194 5191 5189 5186 5185 5184 5183 5183 5183 5184 5184 5185 5186 5187 5187 5188 5189 5189 5190 5191 5192 5193 5195 5196 5197 5198 5199 5199 5199 5199 5198 5198 5197 5196 5195 5194 5193 5191 5190 5188 5187 5184 5182 5179 5177 5174 5171
5271 5270 5269 5268 5267 5266 5265 5264 5263 5261 5260 5259 5257 5256 5255 5253 5251 5250 5248 5247 5245 5242 5240 5238 5235 5232 5229 5226 5223 5219 5215 5211 5208 5205 5201 5198 5195 5191 5188 5184 5181 5178 5176 5174 5172 5172 5171 5171 5172 5173 5174 5176 5178 5179 5180 5182 5183 5184 5185 5186 5188 5190 5192 5193 5194 5195 5195 5195 5195 5195 5195 5194 5193 5192 5191 5190 5189 5188 5186 5185 5183 5181 5178 5176 5173 5170 5168
5263 5262 5262 5261 5260 5259 5258 5256 5255 5254 5252 5251 5249 5248 5247 5245 5243 5242 5240 5237 5235 5233 5230 5228 5225 5222 5219 5216 5212 5208 5205 5201 5197 5194 5190 5187 5183 5180 5176 5172 5169 5166 5163 5161 5159 5158 5158 5158 5159 5161 5163 5166 5169 5171 5173 5175 5177 5179 5180 5182 5185 5187 5188 5190 5191 5192 5192 5192 5192 5191 5191 5190 5190 5188 5187 5186 5185 5184 5182 5181 5179 5177 5175 5172 5169 5167 5164
5255 5255 5254 5253 5252 5251 5249 5248 5247 5246 5244 5243 5242 5240 5239 5237 5235 5233 5230 5228 5225 5223 5220 5217 5215 5211 5208 5205 5202 5198 5195 5191 5188 5184 5179 5175 5172 5168 5164 5160 5157 5153 5150 5147 5145 5145 5145 5147 5148 5150 5153 5157 5161 5164 5167 5169 5172 5174 5176 5179 5181 5184 5185 5186 5187 5188 5188 5188 5188 5187 5187 5186 5186 5185 5184 5183 5181 5180 5179 5177 5175 5173 5170 5168 5165 5163 5160
5247 5246 5245 5245 5244 5242 5241 5240 5239 5238 5237 5235 5234 5232 5230 5228 5226 5223 5221 5218 5215 5213 5210 5207 5204 5201 5198 5196 5193 5189 5186 5182 5178 5174 5170 5165 5161 5158 5154 5150 5146 5142 5138 5136 5134 5134 5136 5138 5140 5143 5146 5150 5154 5158 5161 5164 5167 5170 5173 5176 5178 5180 5182 5183 5184 5184 5184 5184 5184 5184 5183 5183 5182 5181 5180 5178 5177 5176 5175 5173 5171 5169 5166 5164 5162 5159 5156
5239 5238 5238 5237 5236 5235 5233 5232 5231 5230 5228 5227 5225 5223 5221 5219 5216 5214 5211 5209 5206 5203 5200 5197 5194 5192 5189 5187 5184 5180 5177 5173 5169 5165 5161 5157 5153 5150 5146 5142 5138 5134 5131 5129 5128 5129 5130 5132 5135 5138 5141 5145 5149 5153 5157 5160 5163 5167 5170 5173 5176 5178 5179 5180 5181 5181 5181 5181 5180 5180 5180 5179 5178 5177 5176 5174 5173 5172 5171 5169 5167 5165 5163 5160 5158 5155 5153
5231 5231 5230 5229 5228 5226 5225 5224 5222 5221 5219 5218 5216 5214 5212 5210 5207 5204 5202 5199 5196 5194 5191 5189 5186 5183 5180 5177 5174 5172 5168 5165 5162 5158 5154 5150 5147 5144 5140 5137 5133 5131 5128 5127 5126 5127 5128 5130 5132 5135 5139 5142 5146 5150 5154 5157 5161 5165 5168 5171 5173 5175 5176 5177 5177 5177 5177 5177 5177 5176 5176 5175 5174 5173 5172 5170 5169 5168 5167 5165 5163 5161 5159 5156 5154 5151 5149